,,,PA_Meas_PMT16A,,PR_Meas_QMR101_102,,RH_Meas_QMH101,,SR_Meas_QMS101,,TA_Meas_QMH101,,GenWind,,GenWind,
date,time,status,PA,status,PR,status,RH,status,SR,status,TA,status,DirAvg,status,SpdAvg,
2011-08-28, 00:00:05,VALID,1004.99,VALID,0,INVALID,163.617,VALID,0,VALID,26.2349,VALID,125,VALID,0,
2011-08-28, 00:01:05,VALID,1005.04,VALID,0,INVALID,163.601,VALID,0,VALID,26.3303,VALID,117,VALID,0,
2011-08-28, 00:02:05,VALID,1004.91,VALID,0,INVALID,163.571,VALID,0,VALID,26.3303,VALID,115,VALID,0,
2011-08-28, 00:03:05,VALID,1004.98,VALID,0,INVALID,163.578,VALID,0,VALID,26.3128,VALID,127,VALID,0,
2011-08-28, 00:04:05,VALID,1004.92,VALID,0,INVALID,163.586,VALID,0,VALID,26.2524,VALID,129,VALID,0,
2011-08-28, 00:05:05,VALID,1004.9,VALID,0,INVALID,163.586,VALID,0,VALID,26.2329,VALID,108,VALID,0,
2011-08-28, 00:06:05,VALID,1004.84,VALID,0,INVALID,163.563,VALID,0,VALID,26.2154,VALID,93,VALID,0,
2011-08-28, 00:07:05,VALID,1004.84,VALID,0,INVALID,163.601,VALID,0,VALID,26.155,VALID,156,VALID,0,
2011-08-28, 00:08:05,VALID,1004.8,VALID,0,INVALID,163.609,VALID,0,VALID,26.155,VALID,126,VALID,0,
2011-08-28, 00:09:05,VALID,1004.78,VALID,0,INVALID,163.586,VALID,0,VALID,26.1959,VALID,109,VALID,0,
2011-08-28, 00:10:05,VALID,1004.74,VALID,0,INVALID,163.601,VALID,0,VALID,26.1745,VALID,117,VALID,0,
2011-08-28, 00:11:05,VALID,1004.76,VALID,0,INVALID,163.609,VALID,0,VALID,26.1745,VALID,135,VALID,0,
2011-08-28, 00:12:05,VALID,1004.74,VALID,0,INVALID,163.601,VALID,0,VALID,26.194,VALID,103,VALID,0,
2011-08-28, 00:13:05,VALID,1004.73,VALID,0,INVALID,163.609,VALID,0,VALID,26.1745,VALID,140,VALID,0,
2011-08-28, 00:14:05,VALID,1004.72,VALID,0,INVALID,163.601,VALID,0,VALID,26.1959,VALID,156,VALID,0,
2011-08-28, 00:15:05,VALID,1004.72,VALID,0,INVALID,163.578,VALID,0,VALID,26.155,VALID,99,VALID,0,
2011-08-28, 00:16:05,VALID,1004.74,VALID,0,INVALID,163.586,VALID,0,VALID,26.155,VALID,118,VALID,0,
2011-08-28, 00:17:05,VALID,1004.72,VALID,0,INVALID,163.556,VALID,0,VALID,26.155,VALID,138,VALID,0,
2011-08-28, 00:18:05,VALID,1004.69,VALID,0,INVALID,163.594,VALID,0,VALID,26.1765,VALID,127,VALID,0,
2011-08-28, 00:19:05,VALID,1004.7,VALID,0,INVALID,163.571,VALID,0,VALID,26.1355,VALID,181,VALID,0,
2011-08-28, 00:20:05,VALID,1004.67,VALID,0,INVALID,161.358,VALID,0,VALID,26.155,VALID,133,VALID,0,
2011-08-28, 00:21:05,VALID,1004.7,VALID,0,INVALID,163.548,VALID,0,VALID,26.1745,VALID,140,VALID,0,
2011-08-28, 00:22:05,VALID,1004.7,VALID,0,INVALID,136.656,VALID,0,VALID,26.1745,VALID,173,VALID,0,
2011-08-28, 00:23:05,VALID,1004.68,VALID,0,INVALID,142.988,VALID,0,VALID,26.2329,VALID,139,VALID,0,
2011-08-28, 00:24:05,VALID,1004.69,VALID,0,INVALID,131.278,VALID,0,VALID,26.2544,VALID,178,VALID,0,
2011-08-28, 00:25:05,VALID,1004.66,VALID,0,INVALID,135.962,VALID,0,VALID,26.2544,VALID,209,VALID,0,
2011-08-28, 00:26:05,VALID,1004.67,VALID,0,INVALID,151.914,VALID,0,VALID,26.2739,VALID,204,VALID,0,
2011-08-28, 00:27:05,VALID,1004.71,VALID,0,INVALID,163.548,VALID,0,VALID,26.2524,VALID,140,VALID,0,
2011-08-28, 00:28:05,VALID,1004.72,VALID,0,INVALID,163.571,VALID,0,VALID,26.2544,VALID,142,VALID,0,
2011-08-28, 00:29:05,VALID,1004.74,VALID,0,INVALID,163.594,VALID,0,VALID,26.2544,VALID,186,VALID,0,
2011-08-28, 00:30:05,VALID,1004.76,VALID,0,INVALID,163.601,VALID,0,VALID,26.2349,VALID,152,VALID,0,
2011-08-28, 00:31:05,VALID,1004.75,VALID,0,INVALID,163.586,VALID,0,VALID,26.194,VALID,157,VALID,0,
2011-08-28, 00:32:05,VALID,1004.68,VALID,0,INVALID,163.601,VALID,0,VALID,26.1959,VALID,213,VALID,0,
2011-08-28, 00:33:05,VALID,1004.69,VALID,0,INVALID,163.586,VALID,0,VALID,26.155,VALID,243,VALID,0,
2011-08-28, 00:34:05,VALID,1004.64,VALID,0,INVALID,163.586,VALID,0,VALID,26.1355,VALID,164,VALID,0,
2011-08-28, 00:35:05,VALID,1004.64,VALID,0,INVALID,163.586,VALID,0,VALID,26.116,VALID,158,VALID,0,
2011-08-28, 00:36:05,VALID,1004.6,VALID,0,INVALID,163.609,VALID,0,VALID,26.1375,VALID,192,VALID,0,
2011-08-28, 00:37:05,VALID,1004.59,VALID,0,INVALID,163.594,VALID,0,VALID,26.118,VALID,147,VALID,0,
2011-08-28, 00:38:05,VALID,1004.63,VALID,0,INVALID,163.594,VALID,0,VALID,26.118,VALID,166,VALID,0,
2011-08-28, 00:39:05,VALID,1004.63,VALID,0,INVALID,157.575,VALID,0,VALID,26.1375,VALID,189,VALID,0,
2011-08-28, 00:40:05,VALID,1004.62,VALID,0,INVALID,142.752,VALID,0,VALID,26.1355,VALID,177,VALID,0,
2011-08-28, 00:41:05,VALID,1004.67,VALID,0,INVALID,141.134,VALID,0,VALID,26.155,VALID,169,VALID,0,
2011-08-28, 00:42:05,VALID,1004.65,VALID,0,INVALID,135.786,VALID,0,VALID,26.1765,VALID,159,VALID,0,
2011-08-28, 00:43:05,VALID,1004.67,VALID,0,INVALID,145.704,VALID,0,VALID,26.1959,VALID,203,VALID,0,
2011-08-28, 00:44:05,VALID,1004.67,VALID,0,INVALID,144.583,VALID,0,VALID,26.194,VALID,198,VALID,0,
2011-08-28, 00:45:05,VALID,1004.66,VALID,0,INVALID,153.447,VALID,0,VALID,26.2154,VALID,152,VALID,0,
2011-08-28, 00:46:05,VALID,1004.65,VALID,0,INVALID,142.118,VALID,0,VALID,26.1765,VALID,145,VALID,0,
2011-08-28, 00:47:05,VALID,1004.62,VALID,0,INVALID,113.464,VALID,0,VALID,26.1765,VALID,174,VALID,0,
2011-08-28, 00:48:05,VALID,1004.67,VALID,0,INVALID,117.439,VALID,0,VALID,26.1959,VALID,146,VALID,0,
2011-08-28, 00:49:05,VALID,1004.7,VALID,0,INVALID,118.873,VALID,0,VALID,26.1765,VALID,158,VALID,0,
2011-08-28, 00:50:05,VALID,1004.73,VALID,0,INVALID,119.56,VALID,0,VALID,26.1959,VALID,143,VALID,0,
2011-08-28, 00:51:05,VALID,1004.71,VALID,0,INVALID,119.796,VALID,0,VALID,26.1959,VALID,131,VALID,0,
2011-08-28, 00:52:05,VALID,1004.71,VALID,0,INVALID,125.945,VALID,0,VALID,26.1959,VALID,156,VALID,0,
2011-08-28, 00:53:05,VALID,1004.65,VALID,0,INVALID,135.077,VALID,0,VALID,26.2369,VALID,121,VALID,0,
2011-08-28, 00:54:05,VALID,1004.68,VALID,0,INVALID,163.533,VALID,0,VALID,26.2349,VALID,168,VALID,0,
2011-08-28, 00:55:05,VALID,1004.66,VALID,0,INVALID,163.578,VALID,0,VALID,26.2349,VALID,133,VALID,0,
2011-08-28, 00:56:05,VALID,1004.65,VALID,0,INVALID,163.609,VALID,0,VALID,26.2349,VALID,147,VALID,0,
2011-08-28, 00:57:05,VALID,1004.61,VALID,0,INVALID,163.586,VALID,0,VALID,26.2349,VALID,215,VALID,0,
2011-08-28, 00:58:05,VALID,1004.54,VALID,0,INVALID,163.586,VALID,0,VALID,26.2154,VALID,168,VALID,0,
2011-08-28, 00:59:05,VALID,1004.54,VALID,0,INVALID,163.571,VALID,0,VALID,26.2154,VALID,202,VALID,0,
2011-08-28, 01:00:05,VALID,1004.51,VALID,0,INVALID,163.571,VALID,0,VALID,26.2544,VALID,202,VALID,0,
2011-08-28, 01:01:05,VALID,1004.52,VALID,0,INVALID,163.556,VALID,0.100563,VALID,26.2329,VALID,202,VALID,0,
2011-08-28, 01:02:05,VALID,1004.52,VALID,0,INVALID,163.571,VALID,0.100563,VALID,26.192,VALID,202,VALID,0,
2011-08-28, 01:03:05,VALID,1004.51,VALID,0,INVALID,163.594,VALID,0,VALID,26.2329,VALID,77,VALID,0,
2011-08-28, 01:04:05,VALID,1004.52,VALID,0,INVALID,163.586,VALID,0.100563,VALID,26.2329,VALID,83,VALID,0,
2011-08-28, 01:05:05,VALID,1004.51,VALID,0,INVALID,163.586,VALID,0,VALID,26.2349,VALID,83,VALID,0,
2011-08-28, 01:06:05,VALID,1004.49,VALID,0,INVALID,163.609,VALID,0,VALID,26.2134,VALID,83,VALID,0,
2011-08-28, 01:07:05,VALID,1004.45,VALID,0,INVALID,163.578,VALID,0,VALID,26.194,VALID,83,VALID,0,
2011-08-28, 01:08:05,VALID,1004.47,VALID,0,INVALID,163.586,VALID,0.100563,VALID,26.194,VALID,83,VALID,0,
2011-08-28, 01:09:05,VALID,1004.46,VALID,0,INVALID,163.601,VALID,0,VALID,26.155,VALID,47,VALID,0,
2011-08-28, 01:10:05,VALID,1004.48,VALID,0,INVALID,163.617,VALID,0,VALID,26.116,VALID,23,VALID,0,
2011-08-28, 01:11:05,VALID,1004.48,VALID,0,INVALID,163.594,VALID,0,VALID,26.118,VALID,23,VALID,0,
2011-08-28, 01:12:05,VALID,1004.5,VALID,0,INVALID,163.609,VALID,0,VALID,26.0576,VALID,23,VALID,0,
2011-08-28, 01:13:05,VALID,1004.52,VALID,0,INVALID,163.571,VALID,0,VALID,26.0381,VALID,23,VALID,0,
2011-08-28, 01:14:05,VALID,1004.49,VALID,0,INVALID,163.609,VALID,0,VALID,25.9797,VALID,23,VALID,0,
2011-08-28, 01:15:05,VALID,1004.43,VALID,0,INVALID,163.601,VALID,0,VALID,25.9427,VALID,23,VALID,0,
2011-08-28, 01:16:05,VALID,1004.42,VALID,0,INVALID,163.617,VALID,0,VALID,25.9232,VALID,23,VALID,0,
2011-08-28, 01:17:05,VALID,1004.37,VALID,0,INVALID,163.617,VALID,0,VALID,25.8629,VALID,23,VALID,0,
2011-08-28, 01:18:04,VALID,1004.34,VALID,0,INVALID,163.601,VALID,0,VALID,25.8453,VALID,23,VALID,0,
2011-08-28, 01:19:04,VALID,1004.35,VALID,0,INVALID,163.609,VALID,0,VALID,25.8453,VALID,23,VALID,0,
2011-08-28, 01:20:04,VALID,1004.35,VALID,0,INVALID,163.624,VALID,0,VALID,25.8259,VALID,23,VALID,0,
2011-08-28, 01:21:04,VALID,1004.37,VALID,0,INVALID,163.624,VALID,0,VALID,25.7869,VALID,23,VALID,0,
2011-08-28, 01:22:04,VALID,1004.4,VALID,0,INVALID,163.617,VALID,0,VALID,25.7869,VALID,23,VALID,0,
2011-08-28, 01:23:04,VALID,1004.39,VALID,0,INVALID,163.624,VALID,0,VALID,25.748,VALID,23,VALID,0,
2011-08-28, 01:24:04,VALID,1004.36,VALID,0,INVALID,163.601,VALID,0,VALID,25.7285,VALID,23,VALID,0,
2011-08-28, 01:25:04,VALID,1004.37,VALID,0,INVALID,163.624,VALID,0,VALID,25.6876,VALID,23,VALID,0,
2011-08-28, 01:26:04,VALID,1004.36,VALID,0,INVALID,163.617,VALID,0,VALID,25.6895,VALID,23,VALID,0,
2011-08-28, 01:27:04,VALID,1004.31,VALID,0,INVALID,163.617,VALID,0,VALID,25.67,VALID,23,VALID,0,
2011-08-28, 01:28:04,VALID,1004.32,VALID,0,INVALID,163.617,VALID,0,VALID,25.672,VALID,23,VALID,0,
2011-08-28, 01:29:04,VALID,1004.29,VALID,0,INVALID,163.624,VALID,0,VALID,25.6506,VALID,23,VALID,0,
2011-08-28, 01:30:04,VALID,1004.3,VALID,0,INVALID,163.624,VALID,0,VALID,25.6525,VALID,23,VALID,0,
2011-08-28, 01:31:04,VALID,1004.32,VALID,0,INVALID,163.639,VALID,0,VALID,25.5727,VALID,23,VALID,0,
2011-08-28, 01:32:04,VALID,1004.32,VALID,0,INVALID,163.647,VALID,0,VALID,25.5532,VALID,23,VALID,0,
2011-08-28, 01:33:04,VALID,1004.32,VALID,0,INVALID,163.632,VALID,0,VALID,25.5532,VALID,17,VALID,0,
2011-08-28, 01:34:04,VALID,1004.29,VALID,0,INVALID,163.594,VALID,0,VALID,25.5337,VALID,17,VALID,0,
2011-08-28, 01:35:04,VALID,1004.3,VALID,0,INVALID,163.647,VALID,0,VALID,25.4948,VALID,17,VALID,0,
2011-08-28, 01:36:04,VALID,1004.27,VALID,0,INVALID,163.624,VALID,0,VALID,25.4753,VALID,8,VALID,0,
2011-08-28, 01:37:04,VALID,1004.25,VALID,0,INVALID,163.624,VALID,0,VALID,25.4558,VALID,8,VALID,0,
2011-08-28, 01:38:04,VALID,1004.21,VALID,0,INVALID,163.647,VALID,0,VALID,25.4363,VALID,8,VALID,0,
2011-08-28, 01:39:04,VALID,1004.19,VALID,0,INVALID,163.632,VALID,0,VALID,25.4363,VALID,8,VALID,0,
2011-08-28, 01:40:04,VALID,1004.18,VALID,0,INVALID,163.647,VALID,0,VALID,25.4363,VALID,8,VALID,0,
2011-08-28, 01:41:04,VALID,1004.19,VALID,0,INVALID,163.639,VALID,0,VALID,25.4344,VALID,338,VALID,0,
2011-08-28, 01:42:04,VALID,1004.16,VALID,0,INVALID,163.655,VALID,0,VALID,25.4753,VALID,337,VALID,0,
2011-08-28, 01:43:04,VALID,1004.16,VALID,0,INVALID,163.647,VALID,0,VALID,25.4558,VALID,324,VALID,0,
2011-08-28, 01:44:04,VALID,1004.18,VALID,0,INVALID,163.624,VALID,0,VALID,25.5142,VALID,302,VALID,0,
2011-08-28, 01:45:04,VALID,1004.16,VALID,0,INVALID,163.624,VALID,0,VALID,25.5123,VALID,328,VALID,0,
2011-08-28, 01:46:04,VALID,1004.15,VALID,0,INVALID,163.647,VALID,0,VALID,25.5513,VALID,286,VALID,0,
2011-08-28, 01:47:04,VALID,1004.08,VALID,0,INVALID,163.639,VALID,0,VALID,25.5921,VALID,286,VALID,0,
2011-08-28, 01:48:04,VALID,1004.07,VALID,0,INVALID,163.647,VALID,0,VALID,25.6311,VALID,275,VALID,0,
2011-08-28, 01:49:04,VALID,1004.01,VALID,0,INVALID,163.632,VALID,0,VALID,25.6311,VALID,274,VALID,0,
2011-08-28, 01:50:04,VALID,1003.99,VALID,0,INVALID,163.624,VALID,0,VALID,25.672,VALID,294,VALID,0,
2011-08-28, 01:51:04,VALID,1003.98,VALID,0,INVALID,163.624,VALID,0,VALID,25.6915,VALID,294,VALID,0,
2011-08-28, 01:52:04,VALID,1003.98,VALID,0,INVALID,163.632,VALID,0,VALID,25.6486,VALID,302,VALID,0,
2011-08-28, 01:53:04,VALID,1003.96,VALID,0,INVALID,163.647,VALID,0,VALID,25.67,VALID,312,VALID,0,
2011-08-28, 01:54:04,VALID,1003.94,VALID,0,INVALID,163.624,VALID,0,VALID,25.6486,VALID,312,VALID,0,
2011-08-28, 01:55:04,VALID,1003.96,VALID,0,INVALID,163.647,VALID,0,VALID,25.67,VALID,312,VALID,0,
2011-08-28, 01:56:04,VALID,1003.91,VALID,0,INVALID,163.624,VALID,0,VALID,25.6506,VALID,7,VALID,0,
2011-08-28, 01:57:04,VALID,1003.9,VALID,0,INVALID,163.624,VALID,0,VALID,25.6506,VALID,7,VALID,0,
2011-08-28, 01:58:04,VALID,1003.9,VALID,0,INVALID,163.655,VALID,0,VALID,25.5707,VALID,7,VALID,0,
2011-08-28, 01:59:04,VALID,1003.87,VALID,0,INVALID,163.639,VALID,0,VALID,25.5707,VALID,360,VALID,0,
2011-08-28, 02:00:04,VALID,1003.9,VALID,0,INVALID,163.617,VALID,0,VALID,25.5513,VALID,360,VALID,0,
2011-08-28, 02:01:04,VALID,1003.88,VALID,0,INVALID,163.624,VALID,0,VALID,25.5532,VALID,360,VALID,0,
2011-08-28, 02:02:04,VALID,1003.88,VALID,0,INVALID,163.632,VALID,0,VALID,25.5532,VALID,360,VALID,0,
2011-08-28, 02:03:04,VALID,1003.9,VALID,0,INVALID,163.655,VALID,0.100563,VALID,25.5318,VALID,322,VALID,0,
2011-08-28, 02:04:04,VALID,1003.91,VALID,0,INVALID,163.639,VALID,0,VALID,25.5142,VALID,321,VALID,0,
2011-08-28, 02:05:04,VALID,1003.93,VALID,0,INVALID,163.655,VALID,0,VALID,25.5123,VALID,321,VALID,0,
2011-08-28, 02:06:04,VALID,1003.92,VALID,0,INVALID,163.662,VALID,0,VALID,25.4734,VALID,321,VALID,0,
2011-08-28, 02:07:04,VALID,1003.92,VALID,0,INVALID,163.639,VALID,0,VALID,25.4948,VALID,329,VALID,0,
2011-08-28, 02:08:04,VALID,1003.92,VALID,0,INVALID,163.647,VALID,0,VALID,25.4734,VALID,329,VALID,0,
2011-08-28, 02:09:04,VALID,1003.9,VALID,0,INVALID,163.67,VALID,0,VALID,25.4753,VALID,329,VALID,0,
2011-08-28, 02:10:04,VALID,1003.86,VALID,0,INVALID,163.624,VALID,0,VALID,25.4363,VALID,340,VALID,0,
2011-08-28, 02:11:04,VALID,1003.87,VALID,0,INVALID,163.639,VALID,0,VALID,25.4149,VALID,340,VALID,0,
2011-08-28, 02:12:04,VALID,1003.84,VALID,0,INVALID,163.67,VALID,0,VALID,25.3974,VALID,340,VALID,0,
2011-08-28, 02:13:04,VALID,1003.83,VALID,0,INVALID,163.639,VALID,0,VALID,25.3974,VALID,340,VALID,0,
2011-08-28, 02:14:04,VALID,1003.83,VALID,0,INVALID,163.639,VALID,0,VALID,25.376,VALID,340,VALID,0,
2011-08-28, 02:15:04,VALID,1003.85,VALID,0,INVALID,163.639,VALID,0,VALID,25.3974,VALID,340,VALID,0,
2011-08-28, 02:16:04,VALID,1003.84,VALID,0,INVALID,163.655,VALID,0,VALID,25.376,VALID,340,VALID,0,
2011-08-28, 02:17:04,VALID,1003.82,VALID,0,INVALID,163.632,VALID,0,VALID,25.3779,VALID,340,VALID,0,
2011-08-28, 02:18:04,VALID,1003.85,VALID,0,INVALID,163.67,VALID,0,VALID,25.3974,VALID,340,VALID,0,
2011-08-28, 02:19:04,VALID,1003.86,VALID,0,INVALID,163.67,VALID,0,VALID,25.4149,VALID,340,VALID,0,
2011-08-28, 02:20:04,VALID,1003.9,VALID,0,INVALID,163.655,VALID,0,VALID,25.4558,VALID,119,VALID,0,
2011-08-28, 02:21:04,VALID,1003.89,VALID,0,INVALID,163.662,VALID,0,VALID,25.4169,VALID,119,VALID,0,
2011-08-28, 02:22:04,VALID,1003.87,VALID,0,INVALID,163.655,VALID,0,VALID,25.3974,VALID,121,VALID,0,
2011-08-28, 02:23:04,VALID,1003.86,VALID,0,INVALID,163.632,VALID,0.100563,VALID,25.3779,VALID,124,VALID,0,
2011-08-28, 02:24:04,VALID,1003.83,VALID,0,INVALID,163.701,VALID,0,VALID,25.3779,VALID,124,VALID,0,
2011-08-28, 02:25:04,VALID,1003.8,VALID,0,INVALID,163.685,VALID,0,VALID,25.3974,VALID,124,VALID,0,
2011-08-28, 02:26:04,VALID,1003.74,VALID,0,INVALID,163.678,VALID,0,VALID,25.3955,VALID,348,VALID,0,
2011-08-28, 02:27:04,VALID,1003.68,VALID,0,INVALID,163.655,VALID,0,VALID,25.4558,VALID,304,VALID,0,
2011-08-28, 02:28:04,VALID,1003.71,VALID,0,INVALID,163.639,VALID,0,VALID,25.5142,VALID,301,VALID,0,
2011-08-28, 02:29:04,VALID,1003.7,VALID,0,INVALID,163.632,VALID,0,VALID,25.5318,VALID,301,VALID,0,
2011-08-28, 02:30:04,VALID,1003.71,VALID,0,INVALID,163.632,VALID,0,VALID,25.5921,VALID,99,VALID,0,
2011-08-28, 02:31:04,VALID,1003.74,VALID,0,INVALID,163.609,VALID,0,VALID,25.5902,VALID,106,VALID,0,
2011-08-28, 02:32:04,VALID,1003.71,VALID,0,INVALID,163.647,VALID,0,VALID,25.5727,VALID,97,VALID,0,
2011-08-28, 02:33:04,VALID,1003.68,VALID,0,INVALID,163.647,VALID,0,VALID,25.5318,VALID,106,VALID,0,
2011-08-28, 02:34:04,VALID,1003.69,VALID,0,INVALID,163.655,VALID,0,VALID,25.5318,VALID,106,VALID,0,
2011-08-28, 02:35:04,VALID,1003.75,VALID,0,INVALID,163.632,VALID,0,VALID,25.5532,VALID,106,VALID,0,
2011-08-28, 02:36:04,VALID,1003.72,VALID,0,INVALID,163.662,VALID,0,VALID,25.5513,VALID,106,VALID,0,
2011-08-28, 02:37:04,VALID,1003.67,VALID,0,INVALID,163.624,VALID,0,VALID,25.5318,VALID,106,VALID,0,
2011-08-28, 02:38:04,VALID,1003.64,VALID,0,INVALID,163.639,VALID,0,VALID,25.5318,VALID,106,VALID,0,
2011-08-28, 02:39:04,VALID,1003.62,VALID,0,INVALID,163.632,VALID,0,VALID,25.5727,VALID,106,VALID,0,
2011-08-28, 02:40:04,VALID,1003.62,VALID,0,INVALID,163.655,VALID,0,VALID,25.5707,VALID,106,VALID,0,
2011-08-28, 02:41:04,VALID,1003.61,VALID,0,INVALID,163.639,VALID,0,VALID,25.5513,VALID,106,VALID,0,
2011-08-28, 02:42:04,VALID,1003.57,VALID,0,INVALID,163.639,VALID,0,VALID,25.5727,VALID,106,VALID,0,
2011-08-28, 02:43:04,VALID,1003.57,VALID,0,INVALID,163.655,VALID,0,VALID,25.5707,VALID,106,VALID,0,
2011-08-28, 02:44:04,VALID,1003.56,VALID,0,INVALID,163.632,VALID,0,VALID,25.5727,VALID,106,VALID,0,
2011-08-28, 02:45:04,VALID,1003.62,VALID,0,INVALID,163.655,VALID,0.100563,VALID,25.5513,VALID,81,VALID,0,
2011-08-28, 02:46:04,VALID,1003.65,VALID,0,INVALID,163.647,VALID,0,VALID,25.4928,VALID,98,VALID,0,
2011-08-28, 02:47:04,VALID,1003.62,VALID,0,INVALID,163.655,VALID,0,VALID,25.4539,VALID,93,VALID,0,
2011-08-28, 02:48:04,VALID,1003.59,VALID,0,INVALID,163.67,VALID,0.100563,VALID,25.4149,VALID,87,VALID,0,
2011-08-28, 02:49:04,VALID,1003.55,VALID,0,INVALID,163.655,VALID,0,VALID,25.3955,VALID,359,VALID,0,
2011-08-28, 02:50:04,VALID,1003.49,VALID,0,INVALID,163.655,VALID,0,VALID,25.4149,VALID,297,VALID,0,
2011-08-28, 02:51:04,VALID,1003.46,VALID,0,INVALID,163.662,VALID,0,VALID,25.4558,VALID,306,VALID,0,
2011-08-28, 02:52:04,VALID,1003.51,VALID,0,INVALID,163.624,VALID,0,VALID,25.4539,VALID,340,VALID,0,
2011-08-28, 02:53:04,VALID,1003.56,VALID,0,INVALID,163.655,VALID,0,VALID,25.4734,VALID,19,VALID,0,
2011-08-28, 02:54:04,VALID,1003.57,VALID,0,INVALID,163.647,VALID,0,VALID,25.4734,VALID,75,VALID,0,
2011-08-28, 02:55:04,VALID,1003.59,VALID,0,INVALID,163.678,VALID,0,VALID,25.4948,VALID,130,VALID,0,
2011-08-28, 02:56:04,VALID,1003.59,VALID,0,INVALID,163.624,VALID,0,VALID,25.4539,VALID,138,VALID,0,
2011-08-28, 02:57:04,VALID,1003.56,VALID,0,INVALID,163.662,VALID,0,VALID,25.4344,VALID,154,VALID,0,
2011-08-28, 02:58:04,VALID,1003.49,VALID,0,INVALID,163.662,VALID,0,VALID,25.4539,VALID,195,VALID,0,
2011-08-28, 02:59:04,VALID,1003.47,VALID,0,INVALID,163.639,VALID,0,VALID,25.4539,VALID,295,VALID,0,
2011-08-28, 03:00:04,VALID,1003.45,VALID,0,INVALID,163.624,VALID,0,VALID,25.4928,VALID,360,VALID,0,
2011-08-28, 03:01:04,VALID,1003.44,VALID,0,INVALID,163.624,VALID,0.100563,VALID,25.5318,VALID,360,VALID,0,
2011-08-28, 03:02:04,VALID,1003.45,VALID,0,INVALID,163.655,VALID,0,VALID,25.4928,VALID,45,VALID,0,
2011-08-28, 03:03:04,VALID,1003.44,VALID,0,INVALID,163.67,VALID,0,VALID,25.5142,VALID,130,VALID,0,
2011-08-28, 03:04:04,VALID,1003.39,VALID,0,INVALID,163.678,VALID,0,VALID,25.4734,VALID,148,VALID,0,
2011-08-28, 03:05:04,VALID,1003.37,VALID,0,INVALID,163.678,VALID,0,VALID,25.4734,VALID,137,VALID,0,
2011-08-28, 03:06:04,VALID,1003.34,VALID,0,INVALID,163.655,VALID,0,VALID,25.4928,VALID,101,VALID,0,
2011-08-28, 03:07:04,VALID,1003.34,VALID,0,INVALID,163.632,VALID,0,VALID,25.4909,VALID,80,VALID,0,
2011-08-28, 03:08:04,VALID,1003.35,VALID,0,INVALID,163.647,VALID,0,VALID,25.5337,VALID,58,VALID,0,
2011-08-28, 03:09:04,VALID,1003.33,VALID,0,INVALID,163.647,VALID,0,VALID,25.5318,VALID,58,VALID,0,
2011-08-28, 03:10:04,VALID,1003.34,VALID,0,INVALID,163.639,VALID,0,VALID,25.5513,VALID,58,VALID,0,
2011-08-28, 03:11:04,VALID,1003.32,VALID,0,INVALID,163.647,VALID,0,VALID,25.5902,VALID,58,VALID,0,
2011-08-28, 03:12:04,VALID,1003.27,VALID,0,INVALID,163.624,VALID,0,VALID,25.6506,VALID,58,VALID,0,
2011-08-28, 03:13:04,VALID,1003.28,VALID,0,INVALID,163.632,VALID,0,VALID,25.6486,VALID,58,VALID,0,
2011-08-28, 03:14:04,VALID,1003.21,VALID,0,INVALID,163.632,VALID,0.100563,VALID,25.6467,VALID,55,VALID,0,
2011-08-28, 03:15:04,VALID,1003.2,VALID,0,INVALID,163.647,VALID,0,VALID,25.6486,VALID,47,VALID,0,
2011-08-28, 03:16:04,VALID,1003.19,VALID,0,INVALID,163.647,VALID,0,VALID,25.6292,VALID,47,VALID,0,
2011-08-28, 03:17:04,VALID,1003.19,VALID,0,INVALID,163.655,VALID,0,VALID,25.6097,VALID,47,VALID,0,
2011-08-28, 03:18:04,VALID,1003.17,VALID,0,INVALID,163.655,VALID,0,VALID,25.5902,VALID,43,VALID,0,
2011-08-28, 03:19:04,VALID,1003.16,VALID,0,INVALID,163.655,VALID,0,VALID,25.5513,VALID,40,VALID,0,
2011-08-28, 03:20:04,VALID,1003.18,VALID,0,INVALID,163.647,VALID,0,VALID,25.5337,VALID,40,VALID,0,
2011-08-28, 03:21:04,VALID,1003.16,VALID,0,INVALID,163.662,VALID,0,VALID,25.4928,VALID,40,VALID,0,
2011-08-28, 03:22:04,VALID,1003.2,VALID,0,INVALID,163.655,VALID,0,VALID,25.4539,VALID,40,VALID,0,
2011-08-28, 03:23:04,VALID,1003.2,VALID,0,INVALID,163.617,VALID,0.100563,VALID,25.376,VALID,40,VALID,0,
2011-08-28, 03:24:04,VALID,1003.19,VALID,0,INVALID,163.647,VALID,0,VALID,25.3351,VALID,40,VALID,0,
2011-08-28, 03:25:04,VALID,1003.18,VALID,0,INVALID,163.67,VALID,0,VALID,25.3195,VALID,40,VALID,0,
2011-08-28, 03:26:04,VALID,1003.17,VALID,0,INVALID,163.685,VALID,0.100563,VALID,25.3,VALID,40,VALID,0,
2011-08-28, 03:27:04,VALID,1003.15,VALID,0,INVALID,163.662,VALID,0,VALID,25.2592,VALID,40,VALID,0,
2011-08-28, 03:28:04,VALID,1003.16,VALID,0,INVALID,163.685,VALID,0,VALID,25.2397,VALID,40,VALID,0,
2011-08-28, 03:29:04,VALID,1003.13,VALID,0,INVALID,163.693,VALID,0,VALID,25.2397,VALID,40,VALID,0,
2011-08-28, 03:30:04,VALID,1003.07,VALID,0,INVALID,163.647,VALID,0,VALID,25.2202,VALID,40,VALID,0,
2011-08-28, 03:31:04,VALID,1003.07,VALID,0,INVALID,163.67,VALID,0,VALID,25.1813,VALID,2,VALID,0,
2011-08-28, 03:32:04,VALID,1003.05,VALID,0,INVALID,163.647,VALID,0.100563,VALID,25.1813,VALID,2,VALID,0,
2011-08-28, 03:33:04,VALID,1003.02,VALID,0,INVALID,163.693,VALID,0,VALID,25.2027,VALID,2,VALID,0,
2011-08-28, 03:34:04,VALID,1003,VALID,0,INVALID,163.655,VALID,0,VALID,25.1618,VALID,2,VALID,0,
2011-08-28, 03:35:04,VALID,1002.98,VALID,0,INVALID,163.693,VALID,0,VALID,25.1618,VALID,2,VALID,0,
2011-08-28, 03:36:04,VALID,1002.94,VALID,0,INVALID,163.67,VALID,0,VALID,25.1404,VALID,2,VALID,0,
2011-08-28, 03:37:04,VALID,1002.93,VALID,0,INVALID,163.655,VALID,0.100563,VALID,25.1423,VALID,2,VALID,0,
2011-08-28, 03:38:04,VALID,1002.9,VALID,0,INVALID,163.67,VALID,0,VALID,25.1229,VALID,2,VALID,0,
2011-08-28, 03:39:04,VALID,1002.88,VALID,0,INVALID,163.685,VALID,0,VALID,25.0839,VALID,2,VALID,0,
2011-08-28, 03:40:04,VALID,1002.87,VALID,0,INVALID,163.67,VALID,0,VALID,25.0644,VALID,2,VALID,0,
2011-08-28, 03:41:04,VALID,1002.85,VALID,0,INVALID,163.678,VALID,0,VALID,25.0255,VALID,2,VALID,0,
2011-08-28, 03:42:04,VALID,1002.8,VALID,0,INVALID,163.662,VALID,0,VALID,24.9866,VALID,2,VALID,0,
2011-08-28, 03:43:04,VALID,1002.79,VALID,0,INVALID,163.693,VALID,0.100563,VALID,24.9282,VALID,2,VALID,0,
2011-08-28, 03:44:04,VALID,1002.77,VALID,0,INVALID,163.685,VALID,0,VALID,24.9106,VALID,2,VALID,0,
2011-08-28, 03:45:04,VALID,1002.77,VALID,0,INVALID,163.685,VALID,0,VALID,24.8911,VALID,2,VALID,0,
2011-08-28, 03:46:04,VALID,1002.78,VALID,0,INVALID,163.701,VALID,0,VALID,24.8308,VALID,2,VALID,0,
2011-08-28, 03:47:04,VALID,1002.77,VALID,0,INVALID,163.693,VALID,0,VALID,24.8113,VALID,2,VALID,0,
2011-08-28, 03:48:04,VALID,1002.77,VALID,0,INVALID,163.678,VALID,0,VALID,24.8327,VALID,2,VALID,0,
2011-08-28, 03:49:04,VALID,1002.8,VALID,0,INVALID,163.708,VALID,0,VALID,24.7937,VALID,2,VALID,0,
2011-08-28, 03:50:04,VALID,1002.85,VALID,0,INVALID,163.716,VALID,0,VALID,24.7937,VALID,2,VALID,0,
2011-08-28, 03:51:04,VALID,1002.85,VALID,0,INVALID,163.701,VALID,0,VALID,24.7743,VALID,2,VALID,0,
2011-08-28, 03:52:04,VALID,1002.85,VALID,0,INVALID,163.693,VALID,0,VALID,24.7548,VALID,2,VALID,0,
2011-08-28, 03:53:04,VALID,1002.84,VALID,0,INVALID,163.723,VALID,0,VALID,24.7353,VALID,2,VALID,0,
2011-08-28, 03:54:04,VALID,1002.84,VALID,0,INVALID,163.723,VALID,0,VALID,24.7177,VALID,2,VALID,0,
2011-08-28, 03:55:04,VALID,1002.84,VALID,0,INVALID,163.708,VALID,0,VALID,24.6769,VALID,2,VALID,0,